Location: Pebble Beach Sunset Acres
(33.0837°N, 96.4508°W)
Time: 08:22:30
(UTC+00:00)

Cosmos 1805 Rocket - Pass Details

Date: 08 December 2021
Orbit: 606 x 629 km, 82.5° (Epoch: 25 January)

Event Time Altitude Azimuth Distance (km) Brightness Sun altitude
Rises 12:34:40 0° 197° (SSW) 2,880 7.1 -8.9°
Reaches altitude 10° 12:36:57 10° 202° (SSW) 1,975 6.2 -8.4°
Maximum altitude 12:41:11 50° 278° (W) 784 3.7 -7.6°
Drops below altitude 10° 12:45:27 10° 355° (N) 1,974 5.9 -6.8°
Sets 12:47:43 0° 0° (N) 2,879 6.8 -6.4°
